2023/08/09 00:00:00, 0.7,25.7
2023/08/09 00:10:00, 0.7,25.3
2023/08/09 00:20:00, 0.7,25.5
2023/08/09 00:30:00, 0.7,25.8
2023/08/09 00:40:00, 0.6,25.6
2023/08/09 00:50:00, 0.6,25.8
2023/08/09 01:00:00, 0.6,25.5
2023/08/09 01:10:00, 0.6,25.6
2023/08/09 01:20:00, 0.7,25.7
2023/08/09 01:30:00, 0.6,25.5
2023/08/09 01:40:00, 0.6,25.3
2023/08/09 01:50:00, 0.7,25.1
2023/08/09 02:00:00, 0.7,25.1
2023/08/09 02:10:00, 0.6,24.7
2023/08/09 02:20:00, 0.6,25.1
2023/08/09 02:30:00, 0.6,25.2
2023/08/09 02:40:00, 0.6,25.1
2023/08/09 02:50:00, 0.6,24.9
2023/08/09 03:00:00, 0.6,25.4
2023/08/09 03:10:00, 0.6,25.3
2023/08/09 03:20:00, 0.6,25.4
2023/08/09 03:30:00, 0.7,25.4
2023/08/09 03:40:00, 0.7,25.4
2023/08/09 03:50:00, 0.6,25.4
2023/08/09 04:00:00, 0.6,25.4
2023/08/09 04:10:00, 0.6,25.3
2023/08/09 04:20:00, 0.6,25.0
2023/08/09 04:30:00, 0.6,25.5
2023/08/09 04:40:00, 0.6,25.6
2023/08/09 04:50:00, 0.6,25.4
2023/08/09 05:00:00, 0.6,25.5
2023/08/09 05:10:00, 0.6,25.5
2023/08/09 05:20:00, 0.6,25.7
2023/08/09 05:30:00, 0.6,25.5
2023/08/09 05:40:00, 0.6,25.4
2023/08/09 05:50:00, 0.6,25.4
2023/08/09 06:00:00, 0.6,25.8
2023/08/09 06:10:00, 0.6,26.3
2023/08/09 06:20:00, 0.6,26.9
2023/08/09 06:30:00, 0.6,31.1
2023/08/09 06:40:00, 0.6,35.2
2023/08/09 06:50:00, 0.5,36.5
2023/08/09 07:00:00, 0.5,35.8
2023/08/09 07:10:00, 0.7,33.2
2023/08/09 07:20:00, 0.6,29.7
2023/08/09 07:30:00, 0.6,30.2
2023/08/09 07:40:00, 0.5,30.2
2023/08/09 07:50:00, 0.5,30.4
2023/08/09 08:00:00, 0.5,30.5
2023/08/09 08:10:00, 0.5,30.3
2023/08/09 08:20:00, 0.5,30.7
2023/08/09 08:30:00, 0.5,30.7
2023/08/09 08:40:00, 0.6,31.5
2023/08/09 08:50:00, 0.6,31.8
2023/08/09 09:00:00, 0.7,31.8
2023/08/09 09:10:00, 0.7,32.1
2023/08/09 09:20:00, 0.7,31.7
2023/08/09 09:30:00, 0.7,32.1
2023/08/09 09:40:00, 0.7,31.6
2023/08/09 09:50:00, 0.7,31.7
2023/08/09 10:00:00, 0.7,31.5
2023/08/09 10:10:00, 0.7,32.0
2023/08/09 10:20:00, 0.7,31.4
2023/08/09 10:30:00, 0.7,32.8
2023/08/09 10:40:00, 0.7,32.3
2023/08/09 10:50:00, 0.6,33.0
2023/08/09 11:00:00, 0.8,33.2
2023/08/09 11:10:00, 0.8,32.5
2023/08/09 11:20:00, 0.8,33.4
2023/08/09 11:30:00, 0.8,33.4
2023/08/09 11:40:00, 0.8,32.6
2023/08/09 11:50:00, 0.8,33.1
2023/08/09 12:00:00, 0.7,33.4
2023/08/09 12:10:00, 0.7,34.8
2023/08/09 12:20:00, 0.8,34.8
2023/08/09 12:30:00, 0.8,34.7
2023/08/09 12:40:00, 0.7,34.5
2023/08/09 12:50:00, 0.8,34.7
2023/08/09 13:00:00, 0.7,35.1
2023/08/09 13:10:00, 0.8,35.1
2023/08/09 13:20:00, 0.7,35.0
2023/08/09 13:30:00, 0.7,34.9
2023/08/09 13:40:00, 0.7,34.5
2023/08/09 13:50:00, 0.7,33.6
2023/08/09 14:00:00, 0.8,32.8
2023/08/09 14:10:00, 0.8,33.1
2023/08/09 14:20:00, 0.8,32.9
2023/08/09 14:30:00, 0.7,32.8
2023/08/09 14:40:00, 0.8,32.5
2023/08/09 14:50:00, 0.7,32.5
2023/08/09 15:00:00, 0.8,32.4
2023/08/09 15:10:00, 0.8,32.1
2023/08/09 15:20:00, 0.7,32.0
2023/08/09 15:30:00, 0.7,32.4
2023/08/09 15:40:00, 0.7,32.3
2023/08/09 15:50:00, 0.7,32.1
2023/08/09 16:00:00, 0.7,31.8
2023/08/09 16:10:00, 0.8,31.7
2023/08/09 16:20:00, 0.6,31.4
2023/08/09 16:30:00, 0.5,31.3
2023/08/09 16:40:00, 0.6,31.2
2023/08/09 16:50:00, 0.5,30.4
2023/08/09 17:00:00, 0.5,30.1
2023/08/09 17:10:00, 0.5,29.9
2023/08/09 17:20:00, 0.5,30.0
2023/08/09 17:30:00, 0.5,30.1
2023/08/09 17:40:00, 0.6,29.8
2023/08/09 17:50:00, 0.6,29.7
2023/08/09 18:00:00, 0.6,29.6
2023/08/09 18:10:00, 0.5,29.4
2023/08/09 18:20:00, 0.6,29.0
2023/08/09 18:30:00, 0.6,28.9
2023/08/09 18:40:00, 0.6,28.6
2023/08/09 18:50:00, 0.6,28.3
2023/08/09 19:00:00, 0.6,28.3
2023/08/09 19:10:00, 0.5,28.4
2023/08/09 19:20:00, 0.5,28.1
2023/08/09 19:30:00, 0.5,28.4
2023/08/09 19:40:00, 0.6,27.9
2023/08/09 19:50:00, 0.6,27.9
2023/08/09 20:00:00, 0.6,27.8
2023/08/09 20:10:00, 0.6,27.7
2023/08/09 20:20:00, 0.6,27.9
2023/08/09 20:30:00, 0.6,28.2
2023/08/09 20:40:00, 0.6,27.9
2023/08/09 20:50:00, 0.6,27.9
2023/08/09 21:00:00, 0.6,28.0
2023/08/09 21:10:00, 0.6,27.6
2023/08/09 21:20:00, 0.6,27.7
2023/08/09 21:30:00, 0.5,27.7
2023/08/09 21:40:00, 0.5,27.7
2023/08/09 21:50:00, 0.5,27.6
2023/08/09 22:00:00, 0.5,27.6
2023/08/09 22:10:00, 0.6,27.5
2023/08/09 22:20:00, 0.6,27.3
2023/08/09 22:30:00, 0.6,27.5
2023/08/09 22:40:00, 0.6,27.4
2023/08/09 22:50:00, 0.6,27.5
2023/08/09 23:00:00, 0.6,27.4
2023/08/09 23:10:00, 0.6,27.4
2023/08/09 23:20:00, 0.6,27.4
2023/08/09 23:30:00, 0.6,27.5
2023/08/09 23:40:00, 0.6,27.5
2023/08/09 23:50:00, 0.6,27.6
